Location: Doussal
(55.6167°N, 116.8333°W)
Time: 11:48:42
(UTC+00:00)

Envisat - Visible Passes

Search period start: 17 April 2024 00:00
Search period end: 27 April 2024 00:00
Orbit: 762 x 764 km, 98.3° (Epoch: 16 April)

Date Brightness Start Highest point End Pass type
(mag) Time Alt. Az. Time Alt. Az. Time Alt. Az.
17 Apr 4.0 10:50:26 10° NNE 10:55:18 44° E 11:00:09 10° S visible
18 Apr 5.0 10:13:31 10° NE 10:17:39 24° E 10:21:45 10° SE visible
18 Apr 3.1 11:52:02 10° NNE 11:57:06 68° WNW 12:02:08 10° SSW visible
19 Apr 5.6 09:37:27 10° NE 09:39:47 13° E 09:42:05 10° ESE visible
19 Apr 3.4 11:14:40 10° NNE 11:19:45 67° ESE 11:24:48 10° S visible
20 Apr 4.4 10:37:32 10° NNE 10:42:13 36° E 10:46:53 10° SSE visible
21 Apr 5.3 10:00:48 10° NE 10:04:30 20° E 10:08:09 10° SE visible
21 Apr 3.0 11:39:00 10° NNE 11:44:07 83° WNW 11:49:12 10° SSW visible
22 Apr 5.9 09:26:00 10° ENE 09:26:32 10° E 09:27:04 10° E visible
22 Apr 3.7 11:01:42 10° NNE 11:06:42 54° E 11:11:40 10° S visible
23 Apr 4.7 10:24:40 10° NNE 10:29:06 29° E 10:33:30 10° SSE visible
24 Apr 5.5 09:48:12 10° NE 09:51:18 16° E 09:54:22 10° ESE visible
24 Apr 3.1 11:25:59 10° NNE 11:31:07 81° ESE 11:36:12 10° SSW visible
25 Apr 4.1 10:48:45 10° NNE 10:53:37 44° E 10:58:28 10° S visible
26 Apr 5.0 10:11:51 10° NE 10:15:57 24° E 10:20:01 10° SE visible
